Rabat-Sale, Morocco

3:25 PM WEST on April 24, 2017 (GMT +0100)
Sale

Weather History for GMME - August, 2013

Change the Weather History Date:

Wednesday, August 28, 2013

  Actual Average Record
Temperature  
Mean Temperature 68 °F -  
Max Temperature 78 °F 77 °F 90 °F (2016)
Min Temperature 58 °F 61 °F 58 °F (2013)
Cooling Degree Days 3    
Growing Degree Days 18 (Base 50)    
Moisture  
Dew Point 60 °F    
Average Humidity 73    
Maximum Humidity 94    
Minimum Humidity 51    
Precipitation  
Precipitation 0.00 in 0.01 in - ()
Sea Level Pressure  
Sea Level Pressure 29.93 in    
Wind  
Wind Speed 3 mph ()    
Max Wind Speed 12 mph    
Max Gust Speed -    
Visibility 4.6 miles    
Events      
Averages and records for this station are not official NWS values.
T = Trace of Precipitation, MM = Missing Value Source: Averaged Metar Reports

Daily Weather History Graph

Daily Weather History Graph

Search for Another Location

Airport or City:

Trip Planner

Search our weather history database for the weather conditions in past years. The results will help you decide how hot, cold, wet, or windy it might be!

Date:

Astronomy

Aug. 28, 2013 Rise Set
Actual Time 6:57 AM WEST 7:58 PM WEST
Civil Twilight 6:32 AM WEST 8:23 PM WEST
Nautical Twilight 6:01 AM WEST 8:54 PM WEST
Astronomical Twilight 5:30 AM WEST 9:25 PM WEST
Moon 12:02 AM WEST (8/28) 2:15 PM WEST (8/28)
Length of Visible Light 13h 51m
Length of Day
13h 00m
Waning Gibbous, 49% of the Moon is Illuminated
Aug 28
Waning Gibbous
Sep 5
New
Sep 12
First Quarter
Sep 19
Full
Sep 27
Last Quarter

Hourly Weather History & Observations

Time (WEST) Temp. Dew Point Humidity Pressure Visibility Wind Dir Wind Speed Gust Speed Precip Events Conditions
12:00 AM 62.6 °F 57.2 °F 82% 29.95 in - Calm Calm - N/A   Mostly Cloudy
12:30 AM 60.8 °F 57.2 °F 88% 29.95 in 3.7 mi Calm Calm - N/A   Mostly Cloudy
1:00 AM 61 °F 56 °F 80% 29.95 in 4 mi Calm Calm - -   Mostly Cloudy
1:00 AM 60.8 °F 57.2 °F 88% 29.95 in 3.7 mi Calm Calm - N/A   Mostly Cloudy
1:30 AM 62.6 °F 59.0 °F 88% 29.92 in 3.7 mi Calm Calm - N/A   Mostly Cloudy
2:00 AM 62.6 °F 59.0 °F 88% 29.92 in 3.7 mi SE 1.2 mph - N/A   Mostly Cloudy
2:30 AM 62.6 °F 59.0 °F 88% 29.92 in 3.7 mi Calm Calm - N/A   Mostly Cloudy
3:00 AM 60.8 °F 57.2 °F 88% 29.92 in 3.7 mi Calm Calm - N/A   Mostly Cloudy
3:30 AM 59.0 °F 55.4 °F 88% 29.92 in - Calm Calm - N/A   Unknown
4:00 AM 59 °F 56 °F 86% 29.94 in 4 mi Calm Calm - -   Partly Cloudy
4:00 AM 59.0 °F 55.4 °F 88% 29.92 in 3.7 mi Calm Calm - N/A   Scattered Clouds
5:00 AM 60.8 °F 57.2 °F 88% 29.92 in 3.7 mi Calm Calm - N/A   Scattered Clouds
5:30 AM 60.8 °F 57.2 °F 88% 29.92 in 3.7 mi Calm Calm - N/A   Scattered Clouds
6:00 AM 60.8 °F 57.2 °F 88% 29.92 in 3.7 mi Calm Calm - N/A   Scattered Clouds
6:30 AM 59.0 °F 57.2 °F 94% 29.92 in 3.7 mi Calm Calm - N/A   Scattered Clouds
7:00 AM 59 °F 56 °F 86% 29.93 in 3 mi Calm Calm - -   Mostly Cloudy
7:00 AM 59.0 °F 55.4 °F 88% 29.92 in 3.1 mi Calm Calm - N/A   Scattered Clouds
7:30 AM 59.0 °F 57.2 °F 94% 29.92 in 3.1 mi Calm Calm - N/A   Scattered Clouds
8:00 AM 62.6 °F 59.0 °F 88% 29.92 in 5.0 mi Calm Calm - N/A   Scattered Clouds
8:30 AM 66.2 °F 62.6 °F 88% 29.95 in 5.0 mi Calm Calm - N/A   Scattered Clouds
9:00 AM 69.8 °F 62.6 °F 78% 29.95 in 5.0 mi Calm Calm - N/A   Mostly Cloudy
9:30 AM 73.4 °F 62.6 °F 69% 29.95 in 5.0 mi North 4.6 mph - N/A   Scattered Clouds
10:00 AM 73 °F 60 °F 54% 29.95 in 5 mi NNW 5.8 mph - -   Partly Cloudy
10:00 AM 73.4 °F 60.8 °F 65% 29.95 in 5.0 mi NNW 5.8 mph - N/A   Scattered Clouds
10:30 AM 73.4 °F 60.8 °F 65% 29.95 in 5.0 mi NW 8.1 mph - N/A   Scattered Clouds
11:00 AM 75.2 °F 60.8 °F 61% 29.95 in 5.0 mi NNW 8.1 mph - N/A   Scattered Clouds
11:30 AM 75.2 °F 60.8 °F 61% 29.95 in 5.0 mi NNW 9.2 mph - N/A   Scattered Clouds
12:00 PM 77.0 °F 59.0 °F 54% 29.95 in 5.0 mi NNW 10.4 mph - N/A   Scattered Clouds
12:30 PM 77.0 °F 62.6 °F 61% 29.95 in 5.0 mi NW 11.5 mph - N/A   Scattered Clouds
1:00 PM 76 °F 61 °F 51% 29.93 in 5 mi NW 11.5 mph - -   Partly Cloudy
1:00 PM 77.0 °F 60.8 °F 57% 29.92 in 5.0 mi NW 11.5 mph - N/A   Scattered Clouds
1:30 PM 77.0 °F 60.8 °F 57% 29.92 in 5.0 mi NNW 11.5 mph - N/A   Scattered Clouds
2:00 PM 77.0 °F 62.6 °F 61% 29.92 in 5.0 mi NNW 11.5 mph - N/A   Scattered Clouds
2:30 PM 77.0 °F 62.6 °F 61% 29.92 in 5.0 mi NNW 11.5 mph - N/A   Scattered Clouds
3:00 PM 77.0 °F 62.6 °F 61% 29.92 in 5.0 mi NNW 10.4 mph - N/A   Scattered Clouds
3:30 PM 77.0 °F 60.8 °F 57% 29.92 in 5.0 mi NNW 11.5 mph - N/A   Scattered Clouds
4:00 PM 77 °F 62 °F 51% 29.90 in 5 mi NW 10.4 mph - -   Partly Cloudy
4:00 PM 77.0 °F 62.6 °F 61% 29.89 in 5.0 mi NW 10.4 mph - N/A   Scattered Clouds
5:00 PM 77.0 °F 62.6 °F 61% 29.89 in 5.0 mi NNW 10.4 mph - N/A   Scattered Clouds
5:30 PM 75.2 °F 62.6 °F 65% 29.89 in 5.0 mi NNW 9.2 mph - N/A   Scattered Clouds
6:00 PM 75.2 °F 62.6 °F 65% 29.92 in 5.0 mi NNW 9.2 mph - N/A   Scattered Clouds
6:30 PM 75.2 °F 62.6 °F 65% 29.92 in 5.0 mi NW 9.2 mph - N/A   Scattered Clouds
7:00 PM 74 °F 63 °F 60% 29.91 in 5 mi NNW 8.1 mph - -   Partly Cloudy
7:00 PM 73.4 °F 62.6 °F 69% 29.92 in 5.0 mi NNW 8.1 mph - N/A   Scattered Clouds
7:30 PM 73.4 °F 62.6 °F 69% 29.92 in 5.0 mi NW 8.1 mph - N/A   Scattered Clouds
8:00 PM 71.6 °F 62.6 °F 73% 29.92 in 5.0 mi WNW 6.9 mph - N/A   Scattered Clouds
8:30 PM 71.6 °F 60.8 °F 69% 29.92 in 5.0 mi WNW 6.9 mph - N/A   Scattered Clouds
9:00 PM 71.6 °F 60.8 °F 69% 29.92 in 5.0 mi WNW 5.8 mph - N/A   Scattered Clouds
9:30 PM 69.8 °F 60.8 °F 73% 29.95 in 5.0 mi Calm Calm - N/A   Scattered Clouds
10:00 PM 69 °F 60 °F 65% 29.96 in 5 mi Calm Calm - -   Partly Cloudy
10:00 PM 68.0 °F 60.8 °F 78% 29.95 in 5.0 mi Calm Calm - N/A   Scattered Clouds
10:30 PM 66.2 °F 60.8 °F 83% 29.95 in 5.0 mi Calm Calm - N/A   Scattered Clouds
11:00 PM 66.2 °F 60.8 °F 83% 29.95 in 5.0 mi Calm Calm - N/A   Mostly Cloudy
11:30 PM 66.2 °F 60.8 °F 83% 29.95 in 5.0 mi Calm Calm - N/A   Mostly Cloudy